Overview Statistics Trail Chart Weather Telemetry Raw packets
 

This is the latest recevied weather packets stored in our database for station/object N8BAP. If no packets are shown the sender has not sent any weather packets the latest 10 day(s).

<< 99 100 101 102 103 104 105 >>
Time Temp. Humidity Pressure Rain* Wind** Luminosity Snow
1787877577 22.22° C 83% 1020.2 hPa 0 mm - 0 W/m² -
1787877273 22.78° C 82% 1020.2 hPa 0 mm - 0 W/m² -
1787876972 22.78° C 81% 1020.2 hPa 0 mm - 0 W/m² -
1787876668 23.33° C 80% 1020.4 hPa 0 mm - 0 W/m² -
1787876363 23.33° C 79% 1020 hPa 0 mm - 0 W/m² -
1787876061 23.89° C 78% 1020.1 hPa 0 mm - 1 W/m² -
1787875756 23.89° C 78% 1019.9 hPa 0 mm - 4 W/m² -
1787875455 24.44° C 77% 1020.3 hPa 0 mm - 8 W/m² -
1787875148 24.44° C 76% 1020.2 hPa 0 mm - 14 W/m² -
1787874843 25° C 75% 1020.2 hPa 0 mm - 20 W/m² -
1787874542 25° C 74% 1020 hPa 0 mm - 26 W/m² -
1787874237 25.56° C 73% 1020.1 hPa 0 mm - 32 W/m² -
1787873932 25.56° C 72% 1020.1 hPa 0 mm - 39 W/m² -
1787873631 26.11° C 70% 1020 hPa 0 mm - 47 W/m² -
1787873326 26.11° C 70% 1020 hPa 0 mm - 55 W/m² -
1787873025 26.67° C 69% 1020 hPa 0 mm - 62 W/m² -
1787872720 26.67° C 68% 1019.8 hPa 0 mm - 67 W/m² -
1787872417 26.67° C 67% 1020 hPa 0 mm - 69 W/m² -
1787872116 27.22° C 67% 1019.8 hPa 0 mm - 77 W/m² -
1787871816 27.22° C 65% 1019.7 hPa 0 mm - 91 W/m² -
1787871511 27.22° C 64% 1019.7 hPa 0 mm - 111 W/m² -
1787871206 27.78° C 64% 1019.8 hPa 0 mm - 137 W/m² -
1787870901 27.78° C 65% 1019.7 hPa 0 mm - 164 W/m² -
1787870596 27.22° C 66% 1019.8 hPa 0 mm - 180 W/m² -
1787870291 26.67° C 70% 1019.5 hPa 0 mm - 181 W/m² -

* Rain latest hour (hover to see other rain measurements)
** Current wind speed in m/s (hover to see current wind gust speed)